Location: Fisher's Paradise
(46.5411°N, 80.0984°W)
Time: 06:45:39
(UTC-04:00)

Tiangong 2 - Visible Passes

Search period start: 22 March 2019 00:00
Search period end: 01 April 2019 00:00
Orbit: 379 x 390 km, 42.8° (Epoch: 22 March)

Date Brightness Start Highest point End Pass type
(mag) Time Alt. Az. Time Alt. Az. Time Alt. Az.
22 Mar 3.5 05:19:40 15° SSE 05:19:40 15° SSE 05:20:28 10° SE visible
23 Mar 3.5 05:55:33 12° S 05:55:33 12° S 05:56:12 10° S visible
31 Mar 2.7 20:57:50 10° SSW 21:00:08 19° SSE 21:00:24 19° SSE visible
